Weather Roundup
Issued by NWS Chicago, IL

Home | Current Version | Previous Version | Graphics & Text | Print | Product List | Glossary On
Versions: 1 2 3 4 5 6 7 8 9 10 11 12 13 14 15 16 17 18 19 20 21 22 23 24 25 26 27 28 29 30 31 32 33 34 35 36 37 38 39 40 41 42 43 44 45 46 47 48 49 50
000
NZUS59 KLOT 241158
HRRLOT

CHICAGO AREA WEATHER ROUNDUP
NATIONAL WEATHER SERVICE CHICAGO/ROMEOVILLE IL
700 AM CDT THU APR 24 2014

NOTE: "FAIR" INDICATES FEW OR NO CLOUDS BELOW 12,000 FEET WITH NO
SIGNIFICANT WEATHER AND/OR OBSTRUCTIONS TO VISIBILITY.

* THESE STATIONS ARE NOT UNDER NWS QUALITY CONTROL. THEY ALSO MAY NOT
  REPORT WEATHER SUCH AS PRECIPITATION OR FOG.

ILZ005-006-012>014-019>023-241300-
NORTHEAST ILLINOIS

CITY           SKY/WX    TMP DP  RH WIND       PRES   REMARKS
OHARE          CLOUDY    42  33  70 E8        30.02F
6HR MIN TEMP:  39; 6HR MAX TEMP:  42; 6HR PCP:  0.03;

MIDWAY         CLOUDY    44  36  73 E10       30.02F
6HR MIN TEMP:  41; 6HR MAX TEMP:  44; 6HR PCP:  0.02;

AURORA         CLOUDY    45  34  65 E14       29.98F
6HR MIN TEMP:  40; 6HR MAX TEMP:  45;

WAUKEGAN       CLOUDY    39  31  72 E8        30.03F
6HR MIN TEMP:  35; 6HR MAX TEMP:  39; 6HR PCP:  0.02;

DUPAGE AIRPORT CLOUDY    43  34  70 E12       29.99F
6HR MIN TEMP:  38; 6HR MAX TEMP:  43; 6HR PCP:  0.01;

WHEELING       CLOUDY    41  33  73 E8        30.03F
6HR MIN TEMP:  38; 6HR MAX TEMP:  41; 6HR PCP:  0.02;

NORTHERLY IS     N/A     43  36  76 E7          N/A
$$

WIZ051-052-058>065-066-070>072-241300-
SOUTHEAST WISCONSIN

CITY           SKY/WX    TMP DP  RH WIND       PRES   REMARKS
MILWAUKEE      CLOUDY    37  32  82 NE8       30.05F
6HR MIN TEMP:  37; 6HR MAX TEMP:  39; 6HR PCP:  0.04;

KENOSHA*       CLOUDY    39  34  82 E12       30.03F
RACINE*        CLOUDY    39  33  79 E8        30.05F
WAUKESHA       CLOUDY    36  34  93 E9        30.03F
$$

INZ001>003-010>013-019-020-241300-
NORTHWEST INDIANA

CITY           SKY/WX    TMP DP  RH WIND       PRES   REMARKS
GARY*          CLOUDY    45  39  81 E14       30.04F
MICHIGAN CITY* NOT AVBL
RENSSELAER*    NOT AVBL
VALPARAISO     CLOUDY    46  36  68 E8        30.06S
$$

LMZ740>746-241300-
SOUTHERN LAKE MICHIGAN

STATION/POSITION TIME  SKY/WX   TEMP WIND        PRES    VSBY
                                AIR  DIR/SP/G
                 (UTC)          (F)  (DEG/KT/KT) (MB)    (MI)
HARRISON CRIB    1100            40   60/ 12/ 14   N/A
BURNHAM HARBOR   1100            42   60/  5/ 10   N/A
CALUMET HARBOR   1100            43   90/  6/  9 1017.9F
BURNS HARBOR     NOT AVBL
MICHIGAN CITY    1100            47   80/  6/  8   N/A
$$

ABBREVIATIONS USED IN REMARKS
   TC - TEMPERATURE IN CELSIUS
  WCI - WIND CHILL INDEX
   HX - HEAT INDEX
  VSB - VISIBILITY
$$


USA.gov is the U.S. government's official web portal to all federal, state and local government web resources and services.